Location: Culleoka
(33.1312°N, 96.4919°W)
Time: 17:34:00
(UTC+00:00)

Okean 1 - Pass Details

Date: 11 July 2022
Orbit: 532 x 552 km, 82.5° (Epoch: 18 August)

Event Time Altitude Azimuth Distance (km) Brightness Sun altitude
Rises 08:05:03 0° 8° (N) 2,681 7.9 -30.4°
Reaches altitude 10° 08:07:30 10° 23° (NNE) 1,785 6.8 -30.2°
Enters shadow 08:10:00 23° 60° (ENE) 1,167 5.4 -30.0°
